Hourly Data Report for July 12, 2021

BANCROFT AUTO
ONTARIO
Current Station Operator: ECCC - MSC

45°04'17.000" N
77°52'44.000" W
330.70 m
616I001
71294
WRK

Download Data

Hourly Data (July 2021)
Hourly Data Report for July 12, 2021
TIME
LST
Temp Definition
°C
Dew Point Definition
°C
Rel Hum Definition
%
Precip. Amount Definition
mm

Wind Dir Definition
10's deg

Wind Spd Definition
km/h
Visibility Definition
km
Stn Press Definition
kPa
Hmdx Definition


Wind Chill Definition


Weather Definition


00:00 14.2 13.6 96 0.0   0   98.05     LegendNANA
01:00 13.6 13.1 97 0.0   0   98.07     LegendNANA
02:00 13.0 12.5 97 0.0   0   98.09     LegendNANA
03:00 12.6 12.2 97 0.0   0   98.10     LegendNANA
04:00 12.1 11.7 97 0.0 0 1   98.11     LegendNANA
05:00 12.8 12.5 98 0.0 31 1   98.16     LegendNANA
06:00 13.7 13.4 98 0.0 0 1   98.18     LegendNANA
07:00 16.0 15.1 94 0.0 31 2   98.22     LegendNANA
08:00 19.1 15.9 82 0.0 29 3   98.26     LegendNANA
09:00 22.5 15.2 64 0.0 7 7   98.26 27   LegendNANA
10:00 23.6 14.9 58 0.0 7 9   98.27 28   LegendNANA
11:00 24.7 15.1 55 0.0 8 7   98.29 29   LegendNANA
12:00 26.0 14.9 50 0.0 7 10   98.29 30   LegendNANA
13:00 26.5 15.3 50 0.0 5 12   98.29 31   LegendNANA
14:00 27.3 15.1 47 0.0 7 12   98.25 31   LegendNANA
15:00 26.9 14.6 47 0.0 6 12   98.24 31   LegendNANA
16:00 26.6 14.5 47 0.0 8 8   98.21 30   LegendNANA
17:00 26.8 14.4 46 0.0 8 9   98.18 30   LegendNANA
18:00 25.8 14.4 49 0.0 7 7   98.19 29   LegendNANA
19:00 24.4 14.7 55 0.0 9 3   98.22 28   LegendNANA
20:00 21.8 17.2 75 0.0   0   98.21 27   LegendNANA
21:00 20.5 17.4 82 0.0   0   98.26 26   LegendNANA
22:00 20.3 17.4 83 0.0   0   98.24 26   LegendNANA
23:00 19.5 17.4 88 0.0   0   98.21     LegendNANA

Notes on Data Quality.

Legend

  • E = Estimated
  • M = Missing
  • NA = Not Available*
  • [empty] = Indicates an unobserved value
Date modified: